Stations météo

réclame
Mon MeteoGroup
Yeovilton, Grande-Bretagne (3853): Température de l'air & dewpoint: 14.09.2018 17:00:00 - 20.09.2018 17:00:00 (BST)Yeovilton, Grande-Bretagne (3853): Température de l'air -20cm & Température de l'air -100cm: 14.09.2018 17:00:00 - 20.09.2018 17:00:00 (BST)Yeovilton, Grande-Bretagne (3853): Vitesse du vent & gusts: 14.09.2018 17:00:00 - 20.09.2018 17:00:00 (BST)Yeovilton, Grande-Bretagne (3853): Direction du vent: 14.09.2018 17:00:00 - 20.09.2018 17:00:00 (BST)Yeovilton, Grande-Bretagne (3853): reduced air pressure: 14.09.2018 17:00:00 - 20.09.2018 17:00:00 (BST)Yeovilton, Grande-Bretagne (3853): visibility: 14.09.2018 17:00:00 - 20.09.2018 17:00:00 (BST)Yeovilton, Grande-Bretagne (3853): Ensoleillement: 14.09.2018 17:00:00 - 20.09.2018 17:00:00 (BST)Yeovilton, Grande-Bretagne (3853): Quantités de précipitations: 14.09.2018 17:00:00 - 20.09.2018 17:00:00 (BST)
Date & Time tt [°C] td [°C] tt -20cm [°C] tt -100cm [°C] ff [km/h] ff [knt] fx [km/h] fx [knt] dd ppp [hPa] vv [km] sd [min] rr [mm]
20.09.2018 17:00:00 18,3 15,9 - - 44 24 63 34 SSW 1006,4 8 0 0,0
20.09.2018 16:00:00 18,2 16,2 - - 42 23 65 35 SSW 1007,2 8 0 0,0
20.09.2018 15:00:00 18,2 15,6 - - 37 20 57 31 SSW 1008,3 10 0 0,0
20.09.2018 14:00:00 18,3 15,7 - - 37 20 61 33 SSW 1008,9 10 0 0,0
20.09.2018 13:00:00 17,9 15,5 - - 37 20 61 33 SSW 1009,4 8 0 0,0
20.09.2018 12:00:00 17,8 15,9 - - 37 20 57 31 SSW 1009,8 8 0 0,0
20.09.2018 11:00:00 17,5 15,7 - - 35 19 55 30 SSW 1010,4 10 0 0,0
20.09.2018 10:00:00 17,5 16,0 18,2 16,7 28 15 - - SSW 1010,9 6 0 0,0
20.09.2018 09:00:00 17,2 15,9 - - 24 13 - - SSW 1011,2 4,0 0 0,0
20.09.2018 08:00:00 16,9 15,8 - - 26 14 - - SSW 1011,2 4,0 0 0,0
20.09.2018 07:00:00 16,8 15,6 - - 31 17 - - SSW 1011,2 4,0 0 0,0
20.09.2018 06:00:00 17,3 15,2 - - 24 13 46 25 SSW 1011,2 10 0 0,0
20.09.2018 05:00:00 17,2 15,4 - - 28 15 - - SSW 1011,4 10 0 0,0
20.09.2018 04:00:00 17,2 15,6 - - 24 13 - - SSW 1011,9 10 0 0,0
20.09.2018 03:00:00 17,2 15,7 - - 22 12 - - SSW 1012,1 10 0 0,0
20.09.2018 02:00:00 16,5 15,9 - - 21 11 - - SSW 1012,5 10 0 0,2
20.09.2018 01:00:00 15,0 14,4 - - 8 4 - - SSW 1013,3 4,0 - 0,0
20.09.2018 00:00:00 15,1 14,4 - - 9 5 - - SSW 1013,8 3,5 0 0,2
19.09.2018 23:00:00 15,1 14,0 - - 9 5 - - SW 1014,3 4,0 0 0,2
19.09.2018 22:00:00 15,6 13,8 - - 9 5 - - SW 1014,5 10 0 0,0
19.09.2018 21:00:00 15,5 13,9 - - 9 5 - - W 1014,6 10 0 0,0
19.09.2018 20:00:00 15,6 13,9 - - 8 4 - - SW 1014,2 10 0 0,0
19.09.2018 19:00:00 15,9 14,4 - - 22 12 - - W 1013,8 2,5 0 1,6
19.09.2018 18:00:00 19,2 15,1 - - 21 11 46 25 SW 1012,9 6 0 0,0
19.09.2018 17:00:00 19,7 14,9 - - 29 16 57 31 SW 1012,3 10 24 0,0
19.09.2018 16:00:00 20,7 15,6 - - 37 20 57 31 SSW 1011,9 10 18 0,0
19.09.2018 15:00:00 20,4 14,8 - - 34 18 59 32 SSW 1011,9 10 24 0,0
19.09.2018 14:00:00 21,4 15,0 - - 37 20 63 34 SSW 1011,8 10 54 0,0
19.09.2018 13:00:00 21,2 14,5 - - 35 19 63 34 SSW 1011,4 10 60 0,0
19.09.2018 12:00:00 20,3 15,3 - - 35 19 59 32 SSW 1011,4 10 42 0,0
19.09.2018 11:00:00 20,6 15,9 - - 41 22 61 33 SSW 1011,2 10 36 0,0
19.09.2018 10:00:00 18,9 14,7 18,0 16,7 37 20 55 30 SSW 1010,9 10 24 0,0
19.09.2018 09:00:00 18,3 15,3 - - 22 12 - - SSW 1011,0 10 0 0,0
19.09.2018 08:00:00 17,4 15,1 - - 24 13 - - SSW 1011,0 10 0 0,0
19.09.2018 07:00:00 17,2 14,9 - - 24 13 - - SSW 1011,0 10 0 0,0
19.09.2018 06:00:00 16,8 14,7 - - 21 11 - - SSW 1010,7 10 0 0,0
19.09.2018 05:00:00 16,7 14,7 - - 22 12 - - SSW 1010,7 10 0 0,0
19.09.2018 04:00:00 16,5 14,6 - - 15 8 - - SSW 1011,0 10 0 0,0
19.09.2018 03:00:00 16,9 15,4 - - 11 6 - - SW 1011,4 10 0 0,0
19.09.2018 02:00:00 17,0 15,7 - - 15 8 - - SSW 1011,5 10 0 0,0
19.09.2018 01:00:00 17,2 15,6 - - 26 14 - - SSW 1011,4 8 - 0,0
19.09.2018 00:00:00 17,8 15,2 - - 31 17 48 26 SSW 1011,4 10 0 0,0
18.09.2018 23:00:00 17,4 14,9 - - 22 12 - - SSW 1011,5 10 0 0,0
18.09.2018 22:00:00 17,5 15,0 - - 22 12 - - SSW 1011,8 10 0 0,0
18.09.2018 21:00:00 17,7 15,1 - - 21 11 - - SSW 1011,7 10 0 0,0
18.09.2018 20:00:00 17,7 15,1 - - 21 11 - - SSW 1011,5 10 0 0,0
18.09.2018 19:00:00 17,7 15,2 - - 24 13 - - SSW 1011,2 10 0 0,0
18.09.2018 18:00:00 18,8 15,2 - - 24 13 - - SSW 1011,0 10 24 0,0
18.09.2018 17:00:00 20,1 15,0 - - 24 13 46 25 SW 1011,0 10 36 0,0
18.09.2018 16:00:00 19,6 15,6 - - 31 17 46 25 SSW 1010,9 10 0 0,0
18.09.2018 15:00:00 19,2 15,2 - - 28 15 - - SSW 1010,8 10 0 0,0
18.09.2018 14:00:00 18,7 15,2 - - 29 16 - - SSW 1010,4 10 0 0,0
18.09.2018 13:00:00 20,0 14,5 - - 26 14 - - SSW 1010,0 10 6 0,0
18.09.2018 12:00:00 19,4 13,2 - - 18 10 - - SW 1009,8 25 36 0,0
18.09.2018 11:00:00 19,1 12,8 - - 22 12 - - WSW 1009,1 10 12 0,0
18.09.2018 10:00:00 17,6 12,3 18,0 16,7 18 10 - - WSW 1008,3 10 0 0,0
18.09.2018 09:00:00 17,2 12,7 - - 21 11 - - WSW 1007,1 10 0 0,0
18.09.2018 08:00:00 16,8 14,2 - - 21 11 50 27 SW 1005,9 10 0 0,0
18.09.2018 07:00:00 17,3 14,7 - - 29 16 50 27 SW 1004,4 10 0 0,0
18.09.2018 06:00:00 17,2 15,5 - - 29 16 57 31 SSW 1004,1 10 0 0,0
18.09.2018 05:00:00 17,1 15,4 - - 31 17 59 32 SSW 1003,7 10 0 0,0
18.09.2018 04:00:00 17,5 15,6 - - 39 21 70 38 SSW 1003,4 10 0 0,0
18.09.2018 03:00:00 17,8 16,5 - - 39 21 65 35 S 1003,6 3,0 0 0,2
18.09.2018 02:00:00 18,8 15,9 - - 41 22 59 32 S 1004,0 10 0 0,0
18.09.2018 01:00:00 18,7 15,7 - - 28 15 48 26 S 1004,6 10 - 0,0
18.09.2018 00:00:00 18,3 15,1 - - 24 13 - - S 1005,4 10 0 0,0
17.09.2018 23:00:00 15,8 12,5 - - 11 6 - - E 1006,4 10 0 0,0
17.09.2018 22:00:00 15,4 11,4 - - 11 6 - - SE 1007,1 25 0 0,0
17.09.2018 21:00:00 16,6 11,6 - - 9 5 - - ESE 1007,4 10 0 0,0
17.09.2018 20:00:00 17,3 12,4 - - 13 7 - - ESE 1008,2 10 12 0,0
17.09.2018 19:00:00 19,0 12,7 - - 16 9 - - SSE 1008,7 25 60 0,0
17.09.2018 18:00:00 20,2 11,8 - - 21 11 - - S 1009,4 10 60 0,0
17.09.2018 17:00:00 21,1 12,1 - - 21 11 - - S 1010,1 10 60 0,0
17.09.2018 16:00:00 21,9 13,5 - - 24 13 - - S 1010,9 10 60 0,0
17.09.2018 15:00:00 21,5 13,3 - - 26 14 - - S 1012,0 10 54 0,0
17.09.2018 14:00:00 21,1 15,4 - - 24 13 - - S 1013,1 10 18 0,0
17.09.2018 13:00:00 20,3 15,9 - - 26 14 - - S 1013,6 10 12 0,0
17.09.2018 12:00:00 19,4 16,3 - - 24 13 - - S 1014,3 10 0 0,0
17.09.2018 11:00:00 18,5 16,8 - - 21 11 - - S 1015,0 10 0 0,0
17.09.2018 10:00:00 17,8 16,8 17,7 16,7 18 10 - - S 1015,3 6 0 0,0
17.09.2018 09:00:00 17,3 16,7 - - 13 7 - - SSW 1015,5 3,0 0 0,0
17.09.2018 08:00:00 17,3 16,6 - - 15 8 - - S 1015,6 3,0 0 0,0
17.09.2018 07:00:00 17,1 16,5 - - 16 9 - - S 1015,4 5 0 0,0
17.09.2018 06:00:00 17,2 16,3 - - 16 9 - - S 1015,6 5 0 0,0
17.09.2018 05:00:00 17,7 16,2 - - 21 11 - - SSW 1015,9 19 0 0,0
17.09.2018 04:00:00 17,9 16,2 - - 21 11 - - SSW 1016,2 10 0 0,0
17.09.2018 03:00:00 17,9 16,4 - - 16 9 - - S 1016,3 10 0 0,0
17.09.2018 02:00:00 17,6 16,5 - - 18 10 - - S 1016,6 9 0 0,0
17.09.2018 01:00:00 17,9 16,5 - - 18 10 - - SSW 1017,3 15 - 0,0
17.09.2018 00:00:00 17,6 16,5 - - 13 7 - - S 1017,4 12 0 0,0
16.09.2018 23:00:00 17,5 16,4 - - 13 7 - - S 1017,9 11 0 0,0
16.09.2018 22:00:00 17,5 16,1 - - 16 9 - - S 1017,6 17 0 0,0
16.09.2018 21:00:00 17,6 16,2 - - 15 8 - - SSW 1017,9 17 0 0,0
16.09.2018 20:00:00 17,9 16,0 - - 15 8 - - S 1017,5 23 0 0,0
16.09.2018 19:00:00 17,8 16,0 - - 18 10 - - SSW 1017,3 10 0 0,0
16.09.2018 18:00:00 18,1 15,8 - - 22 12 - - S 1017,1 24 0 0,0
16.09.2018 17:00:00 18,8 15,7 - - 21 11 - - SW 1017,4 30 0 0,0
16.09.2018 16:00:00 19,8 15,4 - - 24 13 - - SSW 1017,1 45 12 0,0
16.09.2018 15:00:00 19,1 15,3 - - 24 13 - - SSW 1017,5 30 0 0,0
16.09.2018 14:00:00 19,3 14,8 - - 26 14 - - SSW 1017,9 30 12 0,0
16.09.2018 13:00:00 20,5 15,0 - - 24 13 - - S 1017,3 30 12 0,0
16.09.2018 12:00:00 18,3 13,6 - - 24 13 - - SSW 1018,4 35 0 0,0
16.09.2018 11:00:00 18,3 13,0 - - 24 13 - - S 1018,1 50 0 0,0
16.09.2018 10:00:00 17,4 12,1 17,0 16,7 16 9 - - SSW 1018,6 10 6 0,0
16.09.2018 09:00:00 17,1 13,4 - - 16 9 - - S 1018,3 35 18 0,0
16.09.2018 08:00:00 14,7 13,6 - - 8 4 - - SE 1018,2 21 0 0,0
16.09.2018 07:00:00 14,0 13,0 - - 9 5 - - SE 1018,2 22 0 0,0
16.09.2018 06:00:00 13,3 12,0 - - 9 5 - - SE 1018,6 24 0 0,0
16.09.2018 05:00:00 14,0 12,5 - - 13 7 - - S 1019,0 26 0 0,0
16.09.2018 04:00:00 13,3 11,8 - - 13 7 - - SSE 1019,2 10 0 0,0
16.09.2018 03:00:00 13,5 12,3 - - 13 7 - - S 1020,1 30 0 0,0
16.09.2018 02:00:00 13,2 11,8 - - 5 3 - - SE 1021,0 10 0 0,0
16.09.2018 01:00:00 12,8 10,9 - - 8 4 - - SE 1021,7 45 - 0,0
16.09.2018 00:00:00 13,5 11,2 - - 5 3 - - ESE 1022,4 45 0 0,0
15.09.2018 23:00:00 13,9 11,6 - - 9 5 - - SSE 1022,3 40 0 0,0
15.09.2018 22:00:00 14,7 11,7 - - 11 6 - - S 1022,7 50 0 0,0
15.09.2018 21:00:00 14,6 11,7 - - 15 8 - - SSW 1023,0 40 0 0,0
15.09.2018 20:00:00 14,9 11,8 - - 15 8 - - SSW 1023,1 45 0 0,0
15.09.2018 19:00:00 16,0 11,8 - - 18 10 - - SSW 1022,8 50 18 0,0
15.09.2018 18:00:00 17,7 12,2 - - 24 13 - - SSW 1022,7 30 6 0,0
15.09.2018 17:00:00 18,1 11,5 - - 24 13 - - SSW 1023,1 35 0 0,0
15.09.2018 16:00:00 19,3 11,6 - - 22 12 - - SSW 1023,5 50 24 0,0
15.09.2018 15:00:00 19,8 11,3 - - 21 11 - - SSW 1023,8 29 54 0,0
15.09.2018 14:00:00 18,8 10,4 - - 11 6 - - W 1024,2 50 12 0,0
15.09.2018 13:00:00 19,3 10,5 - - 11 6 - - SW 1024,4 35 30 0,0
15.09.2018 12:00:00 18,1 10,7 - - 9 5 - - SW 1024,7 50 36 0,0
15.09.2018 11:00:00 17,1 11,5 - - 11 6 - - SW 1024,9 40 60 0,0
15.09.2018 10:00:00 15,5 12,4 16,7 17,0 9 5 - - W 1025,0 10 60 0,0
15.09.2018 09:00:00 13,7 12,7 - - 4 2 - - WSW 1024,8 17 60 0,0
15.09.2018 08:00:00 9,6 9,3 - - 2 1 - - S 1024,5 18 18 0,0
15.09.2018 07:00:00 8,9 8,6 - - 8 4 - - S 1023,9 10 0 0,0
15.09.2018 06:00:00 8,7 8,4 - - 11 6 - - SE 1023,6 12 0 0,0
15.09.2018 05:00:00 8,8 8,2 - - 8 4 - - SE 1023,4 15 0 0,0
15.09.2018 04:00:00 9,5 8,5 - - 5 3 - - SE 1023,1 16 0 0,0
15.09.2018 03:00:00 11,7 10,8 - - 9 5 - - SW 1023,0 20 0 0,0
15.09.2018 02:00:00 12,0 10,7 - - 9 5 - - WSW 1023,2 23 0 0,0
15.09.2018 01:00:00 12,2 10,7 - - 9 5 - - WSW 1023,3 23 - 0,0
15.09.2018 00:00:00 12,0 10,2 - - 8 4 - - WSW 1023,2 30 0 0,0
14.09.2018 23:00:00 13,1 10,7 - - 9 5 - - SW 1023,0 40 0 0,0
14.09.2018 22:00:00 14,9 11,0 - - 13 7 - - WSW 1022,5 10 0 0,0
14.09.2018 21:00:00 14,9 10,6 - - 9 5 - - WSW 1022,3 50 0 0,0
14.09.2018 20:00:00 16,0 10,4 - - 11 6 - - W 1021,7 10 0 0,0
14.09.2018 19:00:00 17,1 10,1 - - 13 7 - - WSW 1021,2 45 24 0,0
14.09.2018 18:00:00 18,2 9,2 - - 22 12 - - W 1020,9 45 42 0,0
14.09.2018 17:00:00 18,0 9,9 - - 24 13 - - W 1021,1 50 30 0,0

tt = Température de l'air
td = dewpoint
tt -20cm = Température de l'air -20cm
tt -100cm = Température de l'air -100cm
ff = Vitesse du vent
fx = gusts
dd = Direction du vent
ppp = reduced air pressure
vv = visibility
sd = Ensoleillement
rr = Quantités de précipitations

stations d'obs. à proximité